Simultaneous Nadir Overpasses (SNOs) Predictions

Prediction of SNOs between AQUA and NOAA-19 Satellite Orbit:

Table of predicted SNOs for the next 14.0 days since TLE Epoch: 11/3/2017
Index Date (AQUA) Time (AQUA) Lat,Lon (AQUA) SZA (AQUA ) Date (NOAA-19) Time (NOAA-19) Lat,Lon (NOAA-19) SZA (NOAA-19 ) Distance(km) Time Diff (sec)
1 11/05/2017 13:29:50 80.92, -62.54 98.39 11/05/2017 13:29:51 80.92, -62.64 98.40 1.76 1
2 11/07/2017 19:03:34 -80.91, 34.06 80.96 11/07/2017 19:03:31 -80.92, 34.13 80.96 1.34 3
3 11/10/2017 00:37:18 80.93, 130.40 99.72 11/10/2017 00:37:19 80.91, 130.44 99.70 1.85 1
4 11/12/2017 06:11:01 -80.90,-132.66 79.73 11/12/2017 06:10:58 -80.92,-132.76 79.70 2.33 3
5 11/14/2017 11:44:44 80.90, -36.10 100.87 11/14/2017 11:44:46 80.91, -36.28 100.90 3.33 2




NCC Satellite Simultaneous Nadir Overpasses (SNOs) Prediction Service
